VLG4TG LSZH-LEBL

Flight info

Callsign VLG4TG
Flight time 1h 22m
Altitude 35000
Route VEBIT T50 ROTOS Z669 ULMES DCT VADAR DCT GEVEA DCT INCUS DCT BALSI DCT ETIDO DCT KURIR DCT PEQEF DCT NAKIS DCT BOLSA DCT PPG DCT ALBER
Aircraft A321/M-SDE3FGHIRWY/LB1

Departure

Time 2026-05-01 11:06
Airport Zürich Airport (LSZH)

Arrival

Time 2026-05-01 12:28
Airport Josep Tarradellas Barcelona-El Prat Airport (LEBL)
Time Latitude Longitude Altitude Speed Heading
2026-05-01 10:39 47.45428 8.55804 1399 ft 0 kts 185°
2026-05-01 10:54 47.45432 8.55804 1399 ft 2 kts 185°
2026-05-01 10:54 47.45443 8.55806 1399 ft 0 kts 185°
2026-05-01 10:54 47.45456 8.55807 1399 ft 2 kts 172°
2026-05-01 10:55 47.45470 8.55802 1399 ft 2 kts 159°
2026-05-01 10:55 47.45484 8.55791 1399 ft 2 kts 144°
2026-05-01 10:55 47.45495 8.55776 1398 ft 2 kts 129°
2026-05-01 10:55 47.45504 8.55758 1398 ft 2 kts 115°
2026-05-01 10:56 47.45509 8.55737 1398 ft 2 kts 101°
2026-05-01 10:56 47.45510 8.55727 1397 ft 1 kts 93°
2026-05-01 10:56 47.45510 8.55722 1397 ft 0 kts 95°
2026-05-01 10:58 47.45509 8.55734 1397 ft 3 kts 96°
2026-05-01 10:58 47.45507 8.55800 1399 ft 8 kts 74°
2026-05-01 10:59 47.45574 8.55848 1399 ft 12 kts 13°
2026-05-01 10:59 47.45626 8.55928 1399 ft 10 kts 73°
2026-05-01 10:59 47.45625 8.56038 1402 ft 14 kts 96°
2026-05-01 10:59 47.45612 8.56230 1406 ft 19 kts 95°
2026-05-01 11:00 47.45599 8.56414 1409 ft 16 kts 96°
2026-05-01 11:00 47.45587 8.56568 1412 ft 13 kts 95°
2026-05-01 11:00 47.45579 8.56702 1414 ft 12 kts 96°
2026-05-01 11:00 47.45570 8.56816 1416 ft 10 kts 95°
2026-05-01 11:01 47.45565 8.56899 1417 ft 6 kts 95°
2026-05-01 11:01 47.45563 8.56923 1418 ft 0 kts 95°
2026-05-01 11:02 47.45560 8.56972 1419 ft 7 kts 87°
2026-05-01 11:02 47.45581 8.57016 1419 ft 1 kts
2026-05-01 11:02 47.45583 8.57016 1419 ft 0 kts
2026-05-01 11:03 47.45591 8.57018 1418 ft 4 kts
2026-05-01 11:04 47.45644 8.57023 1417 ft 7 kts 350°
2026-05-01 11:04 47.45667 8.56954 1415 ft 9 kts 271°
2026-05-01 11:04 47.45667 8.56943 1415 ft 0 kts 276°
2026-05-01 11:05 47.45668 8.56938 1415 ft 1 kts 276°
2026-05-01 11:05 47.45679 8.56793 1412 ft 39 kts 275°
2026-05-01 11:05 47.45733 8.56032 1400 ft 107 kts 275°
2026-05-01 11:05 47.45833 8.54615 1384 ft 165 kts 276°
2026-05-01 11:06 47.45973 8.52844 1771 ft 178 kts 276°
2026-05-01 11:06 47.46123 8.51010 2353 ft 183 kts 277°
2026-05-01 11:06 47.46267 8.49150 2986 ft 185 kts 276°
2026-05-01 11:07 47.45272 8.45756 3752 ft 197 kts 214°
2026-05-01 11:07 47.44178 8.44532 4196 ft 198 kts 224°
2026-05-01 11:07 47.43276 8.43028 4638 ft 199 kts 230°
2026-05-01 11:07 47.42420 8.41426 5033 ft 204 kts 232°
2026-05-01 11:08 47.41528 8.39688 5304 ft 217 kts 233°
2026-05-01 11:08 47.40599 8.37860 5578 ft 231 kts 233°
2026-05-01 11:08 47.38543 8.33742 6101 ft 267 kts 237°
2026-05-01 11:09 47.37611 8.31325 6560 ft 278 kts 244°
2026-05-01 11:09 47.36789 8.28744 7264 ft 280 kts 244°
2026-05-01 11:09 47.35913 8.26173 7895 ft 284 kts 243°
2026-05-01 11:10 47.34096 8.20946 9176 ft 294 kts 242°
2026-05-01 11:10 47.33139 8.18239 9781 ft 298 kts 242°
2026-05-01 11:10 47.32184 8.15557 10315 ft 303 kts 242°
2026-05-01 11:10 47.31198 8.12795 10772 ft 312 kts 242°
2026-05-01 11:11 47.30161 8.09881 11088 ft 328 kts 242°
2026-05-01 11:11 47.29078 8.06840 11371 ft 343 kts 242°
2026-05-01 11:11 47.27959 8.03703 11699 ft 356 kts 242°
2026-05-01 11:11 47.26836 8.00423 12284 ft 359 kts 244°
2026-05-01 11:12 47.25862 7.97097 13003 ft 359 kts 247°
2026-05-01 11:12 47.24910 7.93697 13547 ft 362 kts 247°
2026-05-01 11:12 47.23946 7.90228 14083 ft 366 kts 247°
2026-05-01 11:12 47.22980 7.86762 14663 ft 370 kts 248°
2026-05-01 11:13 47.22008 7.83286 15267 ft 371 kts 247°
2026-05-01 11:13 47.21020 7.79770 15878 ft 374 kts 247°
2026-05-01 11:13 47.20022 7.76242 16398 ft 376 kts 246°
2026-05-01 11:13 47.18839 7.72796 16965 ft 378 kts 239°
2026-05-01 11:14 47.17419 7.69609 17548 ft 380 kts 233°
2026-05-01 11:14 47.15783 7.66503 18063 ft 382 kts 231°
2026-05-01 11:14 47.14134 7.63473 18560 ft 385 kts 231°
2026-05-01 11:14 47.12454 7.60395 19050 ft 388 kts 230°
2026-05-01 11:15 47.10764 7.57289 19527 ft 391 kts 231°
2026-05-01 11:15 47.09076 7.54181 19999 ft 393 kts 231°
2026-05-01 11:15 47.07364 7.51023 20466 ft 396 kts 231°
2026-05-01 11:15 47.05662 7.47887 20913 ft 399 kts 231°
2026-05-01 11:16 47.03934 7.44706 21341 ft 402 kts 231°
2026-05-01 11:16 47.02186 7.41490 21782 ft 404 kts 231°
2026-05-01 11:16 47.00437 7.38289 22195 ft 407 kts 230°
2026-05-01 11:16 46.98654 7.35036 22617 ft 409 kts 230°
2026-05-01 11:17 46.96877 7.31797 23035 ft 411 kts 230°
2026-05-01 11:17 46.95081 7.28524 23440 ft 414 kts 230°
2026-05-01 11:17 46.93281 7.25242 23820 ft 416 kts 230°
2026-05-01 11:17 46.91456 7.21914 24197 ft 419 kts 230°
2026-05-01 11:18 46.89637 7.18602 24560 ft 421 kts 230°
2026-05-01 11:18 46.87776 7.15217 24918 ft 424 kts 230°
2026-05-01 11:18 46.85920 7.11842 25281 ft 425 kts 230°
2026-05-01 11:18 46.84080 7.08501 25646 ft 427 kts 230°
2026-05-01 11:19 46.82207 7.05105 25998 ft 429 kts 230°
2026-05-01 11:19 46.80346 7.01734 26321 ft 431 kts 230°
2026-05-01 11:19 46.78463 6.98328 26641 ft 433 kts 230°
2026-05-01 11:19 46.76561 6.94892 26978 ft 435 kts 230°
2026-05-01 11:20 46.74677 6.91492 27306 ft 436 kts 230°
2026-05-01 11:20 46.72760 6.88035 27615 ft 438 kts 230°
2026-05-01 11:20 46.70845 6.84588 27921 ft 440 kts 230°
2026-05-01 11:20 46.68925 6.81137 28224 ft 442 kts 230°
2026-05-01 11:21 46.66974 6.77637 28522 ft 443 kts 230°
2026-05-01 11:21 46.64989 6.74261 28813 ft 444 kts 226°
2026-05-01 11:21 46.62885 6.70965 29083 ft 446 kts 226°
2026-05-01 11:21 46.60757 6.67657 29360 ft 448 kts 226°
2026-05-01 11:22 46.58628 6.64358 29635 ft 449 kts 226°
2026-05-01 11:22 46.56502 6.61063 29915 ft 450 kts 226°
2026-05-01 11:22 46.54371 6.57762 30184 ft 451 kts 225°
2026-05-01 11:22 46.52220 6.54434 30423 ft 453 kts 226°
2026-05-01 11:23 46.50073 6.51115 30659 ft 455 kts 225°
2026-05-01 11:23 46.47912 6.47778 30917 ft 455 kts 225°
2026-05-01 11:23 46.45735 6.44421 31258 ft 454 kts 225°
2026-05-01 11:23 46.43582 6.41101 31612 ft 452 kts 225°
2026-05-01 11:24 46.41426 6.37785 31950 ft 451 kts 225°
2026-05-01 11:24 46.39298 6.34514 32277 ft 449 kts 224°
2026-05-01 11:24 46.35007 6.27934 32928 ft 446 kts 224°
2026-05-01 11:25 46.32891 6.24694 33262 ft 443 kts 224°
2026-05-01 11:25 46.28412 6.18670 33779 ft 440 kts 214°
2026-05-01 11:25 46.25897 6.16246 33980 ft 438 kts 208°
2026-05-01 11:26 46.23184 6.14215 34192 ft 437 kts 202°
2026-05-01 11:26 46.17450 6.11532 34611 ft 433 kts 189°
2026-05-01 11:26 46.14492 6.10796 34783 ft 433 kts 187°
2026-05-01 11:27 46.11527 6.10137 34897 ft 434 kts 187°
2026-05-01 11:27 46.08540 6.09487 35043 ft 435 kts 187°
2026-05-01 11:27 46.05550 6.08833 35192 ft 435 kts 187°
2026-05-01 11:28 45.99764 6.07557 35275 ft 437 kts 187°
2026-05-01 11:28 45.93742 6.06219 35278 ft 437 kts 187°
2026-05-01 11:29 45.84731 6.04225 35280 ft 436 kts 187°
2026-05-01 11:30 45.75759 6.02244 35279 ft 436 kts 188°
2026-05-01 11:30 45.69759 6.00921 35279 ft 435 kts 188°
2026-05-01 11:31 45.63783 5.99607 35274 ft 434 kts 188°
2026-05-01 11:31 45.58032 5.97113 35270 ft 435 kts 205°
2026-05-01 11:32 45.53043 5.92395 35262 ft 433 kts 222°
2026-05-01 11:32 45.48837 5.86311 35266 ft 432 kts 226°
2026-05-01 11:33 45.44659 5.80096 35270 ft 433 kts 227°
2026-05-01 11:33 45.40507 5.73940 35270 ft 433 kts 227°
2026-05-01 11:34 45.36351 5.67800 35266 ft 432 kts 227°
2026-05-01 11:34 45.32182 5.61677 35263 ft 434 kts 227°
2026-05-01 11:35 45.28005 5.55545 35259 ft 433 kts 227°
2026-05-01 11:35 45.23826 5.49431 35254 ft 433 kts 227°
2026-05-01 11:36 45.19622 5.43296 35254 ft 434 kts 228°
2026-05-01 11:36 45.15428 5.37187 35254 ft 434 kts 228°
2026-05-01 11:37 45.11226 5.31080 35242 ft 434 kts 227°
2026-05-01 11:37 45.07013 5.24972 35234 ft 433 kts 227°
2026-05-01 11:38 45.02821 5.18905 35243 ft 434 kts 227°
2026-05-01 11:38 44.98603 5.12818 35239 ft 434 kts 227°
2026-05-01 11:39 44.94393 5.06756 35237 ft 433 kts 227°
2026-05-01 11:39 44.90179 5.00699 35240 ft 432 kts 227°
2026-05-01 11:40 44.85939 4.94619 35239 ft 432 kts 227°
2026-05-01 11:40 44.81742 4.88614 35239 ft 432 kts 227°
2026-05-01 11:41 44.77539 4.82615 35233 ft 432 kts 227°
2026-05-01 11:41 44.73323 4.76610 35229 ft 432 kts 227°
2026-05-01 11:42 44.69078 4.70578 35227 ft 433 kts 227°
2026-05-01 11:42 44.64852 4.64584 35233 ft 433 kts 227°
2026-05-01 11:43 44.60627 4.58605 35241 ft 433 kts 227°
2026-05-01 11:43 44.56404 4.52641 35238 ft 433 kts 227°
2026-05-01 11:44 44.50025 4.43656 35238 ft 433 kts 227°
2026-05-01 11:44 44.45799 4.37722 35239 ft 433 kts 227°
2026-05-01 11:45 44.41664 4.31597 35239 ft 432 kts 231°
2026-05-01 11:45 44.38057 4.24926 35235 ft 431 kts 237°
2026-05-01 11:46 44.34781 4.17903 35241 ft 431 kts 238°
2026-05-01 11:46 44.31074 4.11332 35234 ft 433 kts 228°
2026-05-01 11:47 44.28916 4.08461 35355 ft 435 kts 223°
2026-05-01 11:47 44.26534 4.05849 35279 ft 435 kts 217°
2026-05-01 11:47 44.21364 4.01428 35258 ft 437 kts 212°
2026-05-01 11:48 44.16113 3.97199 35250 ft 437 kts 212°
2026-05-01 11:48 44.10831 3.92950 35250 ft 437 kts 212°
2026-05-01 11:49 44.05569 3.88721 35248 ft 437 kts 212°
2026-05-01 11:49 44.00349 3.84531 35250 ft 437 kts 212°
2026-05-01 11:50 43.95087 3.80314 35247 ft 437 kts 212°
2026-05-01 11:50 43.89908 3.76173 35248 ft 438 kts 212°
2026-05-01 11:51 43.84551 3.71899 35248 ft 437 kts 212°
2026-05-01 11:51 43.79279 3.67700 35246 ft 437 kts 212°
2026-05-01 11:52 43.73991 3.63499 35246 ft 438 kts 212°
2026-05-01 11:52 43.68722 3.59320 35245 ft 438 kts 212°
2026-05-01 11:53 43.63459 3.55156 35245 ft 437 kts 212°
2026-05-01 11:53 43.58174 3.50980 35243 ft 437 kts 212°
2026-05-01 11:54 43.52920 3.46838 35243 ft 437 kts 212°
2026-05-01 11:54 43.47615 3.42664 35243 ft 437 kts 212°
2026-05-01 11:55 43.42338 3.38519 35246 ft 438 kts 211°
2026-05-01 11:55 43.37056 3.34381 35250 ft 438 kts 211°
2026-05-01 11:56 43.31767 3.30252 35250 ft 438 kts 211°
2026-05-01 11:56 43.26450 3.26136 35249 ft 438 kts 210°
2026-05-01 11:57 43.22030 3.22722 35246 ft 438 kts 210°
2026-05-01 11:57 43.15863 3.17963 35241 ft 438 kts 210°
2026-05-01 11:58 43.10552 3.13874 35238 ft 438 kts 210°
2026-05-01 11:58 43.05251 3.09799 35097 ft 440 kts 210°
2026-05-01 11:59 43.02580 3.07749 34852 ft 438 kts 210°
2026-05-01 11:59 42.99937 3.05723 34610 ft 435 kts 210°
2026-05-01 11:59 42.97294 3.03699 34356 ft 433 kts 211°
2026-05-01 12:00 42.92301 2.99280 33771 ft 430 kts 211°
2026-05-01 12:00 42.89800 2.97070 33470 ft 428 kts 219°
2026-05-01 12:00 42.85520 2.91477 32892 ft 426 kts 229°
2026-05-01 12:01 42.83577 2.88452 32596 ft 426 kts 230°
2026-05-01 12:01 42.81641 2.85445 32310 ft 426 kts 230°
2026-05-01 12:01 42.79646 2.82404 32017 ft 427 kts 229°
2026-05-01 12:01 42.77532 2.79609 31723 ft 428 kts 222°
2026-05-01 12:02 42.75191 2.77095 31434 ft 430 kts 217°
2026-05-01 12:02 42.72533 2.75224 31118 ft 435 kts 200°
2026-05-01 12:02 42.69556 2.74477 30842 ft 439 kts 187°
2026-05-01 12:02 42.66494 2.74184 30547 ft 440 kts 186°
2026-05-01 12:03 42.63492 2.73914 30193 ft 436 kts 186°
2026-05-01 12:03 42.60437 2.73614 29334 ft 440 kts 187°
2026-05-01 12:03 42.57378 2.73284 28379 ft 445 kts 187°
2026-05-01 12:03 42.54312 2.72937 27694 ft 443 kts 187°
2026-05-01 12:04 42.51255 2.72588 27118 ft 439 kts 187°
2026-05-01 12:04 42.48226 2.72240 26524 ft 435 kts 187°
2026-05-01 12:04 42.45242 2.71750 25924 ft 431 kts 191°
2026-05-01 12:04 42.42322 2.71061 25468 ft 424 kts 192°
2026-05-01 12:05 42.39476 2.70368 25015 ft 418 kts 192°
2026-05-01 12:05 42.33839 2.68988 24137 ft 406 kts 192°
2026-05-01 12:05 42.31082 2.68314 23716 ft 400 kts 192°
2026-05-01 12:06 42.28371 2.67654 23304 ft 394 kts 192°
2026-05-01 12:06 42.25680 2.66998 22849 ft 390 kts 192°
2026-05-01 12:06 42.23050 2.66359 22364 ft 388 kts 192°
2026-05-01 12:06 42.20408 2.65709 21874 ft 385 kts 193°
2026-05-01 12:07 42.17899 2.64539 21342 ft 380 kts 210°
2026-05-01 12:07 42.15794 2.62435 20864 ft 375 kts 226°
2026-05-01 12:07 42.14040 2.59830 20419 ft 371 kts 230°
2026-05-01 12:07 42.12357 2.57233 19938 ft 370 kts 230°
2026-05-01 12:08 42.10669 2.54630 19464 ft 368 kts 230°
2026-05-01 12:08 42.09000 2.52072 19018 ft 366 kts 229°
2026-05-01 12:08 42.07335 2.49531 18561 ft 364 kts 229°
2026-05-01 12:08 42.05662 2.46988 18104 ft 362 kts 229°
2026-05-01 12:09 42.04001 2.44471 17641 ft 357 kts 229°
2026-05-01 12:09 42.02372 2.42006 16998 ft 354 kts 229°
2026-05-01 12:09 42.00747 2.39550 16336 ft 352 kts 229°
2026-05-01 12:09 41.99130 2.37107 15689 ft 349 kts 229°
2026-05-01 12:10 41.97516 2.34673 15046 ft 346 kts 229°
2026-05-01 12:10 41.94205 2.30108 13993 ft 340 kts 212°
2026-05-01 12:10 41.92034 2.28862 13763 ft 342 kts 198°
2026-05-01 12:11 41.87524 2.27048 13266 ft 339 kts 197°
2026-05-01 12:11 41.85251 2.26098 13029 ft 338 kts 198°
2026-05-01 12:11 41.83028 2.25131 12771 ft 336 kts 198°
2026-05-01 12:12 41.80880 2.24172 12526 ft 335 kts 198°
2026-05-01 12:12 41.78621 2.23148 12277 ft 334 kts 198°
2026-05-01 12:12 41.76423 2.22143 12026 ft 333 kts 198°
2026-05-01 12:12 41.74220 2.21132 11774 ft 331 kts 198°
2026-05-01 12:13 41.72048 2.20134 11519 ft 330 kts 198°
2026-05-01 12:13 41.69887 2.19141 11265 ft 328 kts 198°
2026-05-01 12:13 41.67738 2.18154 11006 ft 326 kts 198°
2026-05-01 12:13 41.65632 2.17165 10739 ft 321 kts 201°
2026-05-01 12:14 41.63719 2.15650 10435 ft 317 kts 216°
2026-05-01 12:14 41.62024 2.13796 10145 ft 312 kts 219°
2026-05-01 12:14 41.60394 2.11950 9943 ft 305 kts 219°
2026-05-01 12:14 41.58773 2.10152 9771 ft 301 kts 218°
2026-05-01 12:15 41.57091 2.08332 9674 ft 311 kts 218°
2026-05-01 12:15 41.55429 2.06563 9468 ft 303 kts 217°
2026-05-01 12:15 41.53791 2.04839 9276 ft 296 kts 217°
2026-05-01 12:15 41.52197 2.03172 9123 ft 287 kts 217°
2026-05-01 12:16 41.50621 2.01530 8999 ft 286 kts 217°
2026-05-01 12:16 41.49068 1.99915 8876 ft 285 kts 217°
2026-05-01 12:16 41.47500 1.98289 8753 ft 285 kts 217°
2026-05-01 12:16 41.45944 1.96676 8623 ft 283 kts 217°
2026-05-01 12:17 41.44413 1.95090 8426 ft 276 kts 217°
2026-05-01 12:17 41.42893 1.93516 8109 ft 275 kts 216°
2026-05-01 12:17 41.41381 1.91954 7624 ft 281 kts 216°
2026-05-01 12:17 41.39823 1.90348 7134 ft 286 kts 216°
2026-05-01 12:18 41.38222 1.88696 6636 ft 288 kts 216°
2026-05-01 12:18 41.36656 1.87080 6147 ft 287 kts 216°
2026-05-01 12:18 41.35086 1.85460 5657 ft 286 kts 216°
2026-05-01 12:18 41.33513 1.83838 5265 ft 280 kts 216°
2026-05-01 12:19 41.32013 1.82291 5014 ft 270 kts 216°
2026-05-01 12:19 41.30545 1.80778 4759 ft 261 kts 215°
2026-05-01 12:19 41.29163 1.79354 4514 ft 246 kts 215°
2026-05-01 12:19 41.27815 1.77967 4300 ft 243 kts 216°
2026-05-01 12:20 41.26591 1.76396 4173 ft 246 kts 230°
2026-05-01 12:20 41.25679 1.74507 4035 ft 239 kts 242°
2026-05-01 12:20 41.24989 1.72570 3902 ft 227 kts 240°
2026-05-01 12:20 41.24016 1.70984 3821 ft 221 kts 214°
2026-05-01 12:21 41.22647 1.70136 3765 ft 215 kts 188°
2026-05-01 12:21 41.21188 1.70186 3638 ft 207 kts 161°
2026-05-01 12:21 41.19960 1.71047 3518 ft 199 kts 136°
2026-05-01 12:21 41.19124 1.72469 3398 ft 194 kts 115°
2026-05-01 12:22 41.18824 1.74167 3307 ft 190 kts 90°
2026-05-01 12:22 41.18882 1.75352 3294 ft 190 kts 82°
2026-05-01 12:22 41.19350 1.77594 3259 ft 190 kts 70°
2026-05-01 12:22 41.19890 1.79200 3232 ft 190 kts 66°
2026-05-01 12:23 41.20459 1.80768 3159 ft 190 kts 65°
2026-05-01 12:23 41.21027 1.82363 3080 ft 190 kts 66°
2026-05-01 12:23 41.21584 1.83961 2999 ft 190 kts 66°
2026-05-01 12:23 41.22125 1.85542 2962 ft 189 kts 67°
2026-05-01 12:24 41.22669 1.87146 2964 ft 190 kts 66°
2026-05-01 12:24 41.23187 1.88679 2928 ft 173 kts 67°
2026-05-01 12:24 41.23672 1.90115 2735 ft 169 kts 67°
2026-05-01 12:24 41.24151 1.91535 2508 ft 168 kts 66°
2026-05-01 12:25 41.24626 1.92935 2280 ft 163 kts 67°
2026-05-01 12:25 41.25505 1.95523 1857 ft 148 kts 68°
2026-05-01 12:25 41.25925 1.96770 1680 ft 148 kts 63°
2026-05-01 12:26 41.26349 1.98013 1497 ft 147 kts 63°
2026-05-01 12:26 41.27132 2.00312 1119 ft 133 kts 64°
2026-05-01 12:26 41.27519 2.01446 954 ft 133 kts 63°
2026-05-01 12:27 41.27905 2.02566 789 ft 133 kts 67°
2026-05-01 12:27 41.28664 2.04814 422 ft 134 kts 63°
2026-05-01 12:28 41.29436 2.07064 81 ft 135 kts 62°
2026-05-01 12:28 41.29812 2.08147 23 ft 114 kts 64°
2026-05-01 12:28 41.30202 2.09288 15 ft 37 kts 66°
2026-05-01 12:29 41.30299 2.09576 14 ft 32 kts 65°
2026-05-01 12:29 41.30352 2.09765 14 ft 11 kts 102°
2026-05-01 12:29 41.30272 2.09874 14 ft 9 kts 153°
2026-05-01 12:30 41.30171 2.09747 14 ft 15 kts 246°
2026-05-01 12:30 41.30126 2.09617 14 ft 15 kts 245°
2026-05-01 12:30 41.30079 2.09479 14 ft 18 kts 245°
2026-05-01 12:31 41.30021 2.09310 17 ft 19 kts 245°
2026-05-01 12:31 41.29964 2.09146 17 ft 19 kts 245°
2026-05-01 12:31 41.29909 2.08982 17 ft 19 kts 245°
2026-05-01 12:31 41.29852 2.08817 18 ft 19 kts 246°
2026-05-01 12:32 41.29796 2.08652 18 ft 19 kts 245°
2026-05-01 12:32 41.29687 2.08332 20 ft 18 kts 246°
2026-05-01 12:32 41.29633 2.08175 20 ft 19 kts 245°
2026-05-01 12:33 41.29577 2.08012 19 ft 19 kts 245°
2026-05-01 12:33 41.29518 2.07843 17 ft 20 kts 245°
2026-05-01 12:33 41.29460 2.07668 16 ft 21 kts 246°
2026-05-01 12:33 41.29396 2.07487 15 ft 21 kts 245°
2026-05-01 12:34 41.29343 2.07343 14 ft 7 kts 211°
2026-05-01 12:34 41.29299 2.07362 15 ft 6 kts 156°
2026-05-01 12:34 41.29239 2.07368 16 ft 9 kts 213°
2026-05-01 12:34 41.29205 2.07339 16 ft 4 kts 176°
2026-05-01 12:35 41.29175 2.07355 17 ft 4 kts 153°
2026-05-01 12:35 41.29150 2.07371 17 ft 1 kts 155°
2026-05-01 12:35 41.29147 2.07373 17 ft 0 kts 155°